Location: Drawsko Pomorskie
(53.5317°N, 15.8111°E)
Time: 14:01:08
(UTC+01:00)

Envisat - Pass Details

Date: 19 October 2019
Orbit: 764 x 766 km, 98.1° (Epoch: 17 November)

Event Time Altitude Azimuth Distance (km) Brightness Sun altitude
Rises 20:08:41 0° 206° (SSW) 3,225 6.4 -20.9°
Reaches altitude 10° 20:11:31 10° 222° (SW) 2,304 5.8 -21.3°
Maximum altitude 20:15:21 21° 271° (W) 1,667 5.6 -21.9°
Drops below altitude 10° 20:19:12 10° 320° (NW) 2,316 6.2 -22.5°
Sets 20:22:04 0° 336° (NNW) 3,248 6.8 -22.9°
